EN

Hourly Weather Dziebedow

Today, 21 October, Wednesday

Time Temperature Precipitation Wind Pressure Humidity
00:00 +9°C° 0 mm 7 mps 748 mmHg 64%
01:00 +9°C° 0 mm 7 mps 748 mmHg 65%
02:00 +9°C° 0 mm 6 mps 747 mmHg 66%
03:00 +9°C° 0 mm 6 mps 747 mmHg 67%
04:00 +9°C° 0 mm 5 mps 747 mmHg 68%
05:00 +9°C° 0 mm 5 mps 747 mmHg 68%
06:00 +9°C° 0 mm 5 mps 747 mmHg 68%
07:00 +9°C° 0 mm 5 mps 747 mmHg 67%
08:00 +9°C° 0 mm 5 mps 747 mmHg 66%
09:00 +10°C° 0 mm 5 mps 747 mmHg 66%
10:00 +10°C° 0 mm 5 mps 747 mmHg 65%
11:00 +12°C° 0 mm 5 mps 746 mmHg 64%
12:00 +13°C° 0 mm 5 mps 746 mmHg 63%
13:00 +14°C° 0 mm 5 mps 746 mmHg 62%
14:00 +13°C° 0 mm 5 mps 746 mmHg 63%
15:00 +13°C° 0 mm 5 mps 746 mmHg 65%
16:00 +13°C° 0 mm 5 mps 745 mmHg 67%
17:00 +12°C° 0 mm 5 mps 746 mmHg 69%
18:00 +12°C° 0 mm 5 mps 746 mmHg 70%
19:00 +10°C° 0 mm 5 mps 746 mmHg 72%
20:00 +10°C° 0 mm 5 mps 746 mmHg 72%
21:00 +10°C° 0 mm 5 mps 746 mmHg 72%
22:00 +10°C° 0 mm 5 mps 746 mmHg 72%
23:00 +10°C° 0 mm 5 mps 746 mmHg 73%

Tomorrow, 22 October, Thursday

Time Temperature Precipitation Wind Pressure Humidity
00:00 +10°C° 0 mm 5 mps 747 mmHg 73%
01:00 +11°C° 0 mm 4 mps 747 mmHg 74%
02:00 +10°C° 0 mm 5 mps 747 mmHg 74%
03:00 +10°C° 0 mm 5 mps 746 mmHg 75%
04:00 +10°C° 0 mm 5 mps 746 mmHg 75%
05:00 +10°C° 0 mm 5 mps 747 mmHg 74%
06:00 +10°C° 0 mm 5 mps 747 mmHg 73%
07:00 +10°C° 0 mm 5 mps 747 mmHg 72%
08:00 +13°C° 0 mm 5 mps 747 mmHg 68%
09:00 +14°C° 0 mm 5 mps 747 mmHg 64%
10:00 +16°C° 0 mm 6 mps 748 mmHg 60%
11:00 +17°C° 0 mm 5 mps 748 mmHg 59%
12:00 +19°C° 0 mm 5 mps 748 mmHg 57%
13:00 +20°C° 0 mm 5 mps 748 mmHg 56%
14:00 +19°C° 0 mm 4 mps 748 mmHg 60%
15:00 +18°C° 0 mm 4 mps 747 mmHg 65%
16:00 +17°C° 0 mm 3 mps 747 mmHg 69%
17:00 +17°C° 0 mm 3 mps 747 mmHg 71%
18:00 +16°C° 0 mm 3 mps 748 mmHg 72%
19:00 +15°C° 0 mm 4 mps 748 mmHg 73%
20:00 +14°C° 0 mm 4 mps 748 mmHg 74%
21:00 +14°C° 0 mm 4 mps 748 mmHg 75%
22:00 +14°C° 0 mm 4 mps 748 mmHg 76%
23:00 +14°C° 0 mm 4 mps 747 mmHg 76%

Day after tomorrow, 23 October, Friday

Time Temperature Precipitation Wind Pressure Humidity
00:00 +13°C° 0 mm 4 mps 747 mmHg 76%
01:00 +13°C° 0 mm 4 mps 747 mmHg 76%
02:00 +13°C° 0 mm 4 mps 747 mmHg 75%
03:00 +13°C° 0 mm 4 mps 747 mmHg 75%
04:00 +13°C° 0 mm 4 mps 746 mmHg 75%
05:00 +13°C° 0 mm 4 mps 746 mmHg 75%
06:00 +13°C° 0 mm 4 mps 746 mmHg 75%
07:00 +13°C° 0 mm 4 mps 746 mmHg 74%
08:00 +14°C° 0 mm 4 mps 746 mmHg 72%
09:00 +15°C° 0 mm 5 mps 746 mmHg 69%
10:00 +15°C° 0 mm 5 mps 746 mmHg 67%
11:00 +16°C° 0 mm 5 mps 745 mmHg 66%
12:00 +17°C° 0 mm 5 mps 745 mmHg 65%
13:00 +18°C° 0 mm 4 mps 745 mmHg 65%
14:00 +18°C° 0 mm 4 mps 745 mmHg 68%
15:00 +17°C° 0 mm 3 mps 745 mmHg 71%
16:00 +17°C° 0 mm 2 mps 745 mmHg 74%
17:00 +16°C° 0 mm 2 mps 745 mmHg 78%
18:00 +15°C° 0 mm 2 mps 745 mmHg 82%
19:00 +13°C° 0 mm 3 mps 745 mmHg 86%
20:00 +13°C° 0.1 mm 3 mps 745 mmHg 85%
21:00 +13°C° 0.1 mm 3 mps 745 mmHg 85%
22:00 +13°C° 0.1 mm 3 mps 745 mmHg 85%
23:00 +13°C° 0.4 mm 3 mps 745 mmHg 88%

24 October, Saturday

Time Temperature Precipitation Wind Pressure Humidity
00:00 +13°C° 0.4 mm 3 mps 745 mmHg 91%
01:00 +13°C° 0.4 mm 3 mps 745 mmHg 94%
02:00 +13°C° 0.6 mm 3 mps 745 mmHg 94%
03:00 +13°C° 0.6 mm 3 mps 745 mmHg 93%
04:00 +13°C° 0.6 mm 3 mps 745 mmHg 93%
05:00 +12°C° 0 mm 4 mps 745 mmHg 94%
06:00 +12°C° 0 mm 4 mps 745 mmHg 94%
07:00 +12°C° 0 mm 4 mps 745 mmHg 95%
08:00 +12°C° 0 mm 5 mps 745 mmHg 90%
09:00 +13°C° 0 mm 6 mps 746 mmHg 85%
10:00 +14°C° 0 mm 7 mps 746 mmHg 80%
11:00 +14°C° 0 mm 7 mps 746 mmHg 75%
12:00 +15°C° 0 mm 7 mps 746 mmHg 70%
13:00 +15°C° 0 mm 7 mps 746 mmHg 64%
14:00 +14°C° 0 mm 6 mps 747 mmHg 67%
15:00 +14°C° 0 mm 5 mps 747 mmHg 70%
16:00 +13°C° 0 mm 4 mps 747 mmHg 72%
17:00 +13°C° 0 mm 3 mps 747 mmHg 75%
18:00 +12°C° 0 mm 3 mps 748 mmHg 78%
19:00 +12°C° 0 mm 2 mps 748 mmHg 81%
20:00 +12°C° 0 mm 2 mps 749 mmHg 83%
21:00 +10°C° 0 mm 2 mps 749 mmHg 85%
22:00 +11°C° 0 mm 1 mps 749 mmHg 87%
23:00 +10°C° 0 mm 2 mps 749 mmHg 88%

25 October, Sunday

Time Temperature Precipitation Wind Pressure Humidity
00:00 +9°C° 0 mm 2 mps 749 mmHg 89%
01:00 +9°C° 0 mm 2 mps 749 mmHg 91%
02:00 +9°C° 0 mm 2 mps 749 mmHg 91%
03:00 +9°C° 0 mm 3 mps 749 mmHg 91%
04:00 +9°C° 0 mm 3 mps 748 mmHg 91%
05:00 +9°C° 0 mm 3 mps 748 mmHg 92%
06:00 +9°C° 0 mm 3 mps 748 mmHg 92%
07:00 +8°C° 0 mm 3 mps 748 mmHg 92%
08:00 +10°C° 0 mm 3 mps 748 mmHg 85%
09:00 +12°C° 0 mm 4 mps 748 mmHg 78%
10:00 +13°C° 0 mm 4 mps 748 mmHg 72%
11:00 +14°C° 0 mm 4 mps 748 mmHg 67%
12:00 +15°C° 0 mm 4 mps 747 mmHg 63%
13:00 +17°C° 0 mm 4 mps 747 mmHg 59%
14:00 +15°C° 0 mm 4 mps 746 mmHg 63%
15:00 +16°C° 0 mm 3 mps 746 mmHg 67%
16:00 +14°C° 0 mm 3 mps 746 mmHg 71%
17:00 +13°C° 0 mm 3 mps 746 mmHg 74%
18:00 +13°C° 0 mm 4 mps 746 mmHg 76%
19:00 +12°C° 0 mm 4 mps 746 mmHg 79%
20:00 +12°C° 0 mm 4 mps 745 mmHg 79%
21:00 +11°C° 0 mm 4 mps 745 mmHg 79%
22:00 +11°C° 0 mm 4 mps 745 mmHg 79%
23:00 +11°C° 0 mm 4 mps 745 mmHg 80%

26 October, Monday

Time Temperature Precipitation Wind Pressure Humidity
00:00 +10°C° 0 mm 4 mps 745 mmHg 81%
01:00 +10°C° 0 mm 4 mps 745 mmHg 82%
02:00 +10°C° 0 mm 4 mps 745 mmHg 83%
03:00 +10°C° 0 mm 4 mps 744 mmHg 84%
04:00 +8°C° 0 mm 4 mps 744 mmHg 86%
05:00 +8°C° 0 mm 4 mps 744 mmHg 85%
06:00 +8°C° 0 mm 4 mps 744 mmHg 85%
07:00 +8°C° 0 mm 4 mps 744 mmHg 84%
08:00 +11°C° 0 mm 4 mps 744 mmHg 78%
09:00 +12°C° 0 mm 4 mps 744 mmHg 73%
10:00 +13°C° 0 mm 4 mps 744 mmHg 67%
11:00 +15°C° 0 mm 4 mps 743 mmHg 63%
12:00 +17°C° 0 mm 4 mps 743 mmHg 60%
13:00 +18°C° 0 mm 4 mps 743 mmHg 56%
14:00 +17°C° 0 mm 4 mps 743 mmHg 61%
15:00 +16°C° 0 mm 3 mps 742 mmHg 65%
16:00 +14°C° 0 mm 3 mps 742 mmHg 70%
17:00 +14°C° 0 mm 3 mps 742 mmHg 72%
18:00 +13°C° 0 mm 3 mps 742 mmHg 74%
19:00 +13°C° 0 mm 3 mps 742 mmHg 76%
20:00 +13°C° 0.1 mm 3 mps 742 mmHg 77%
21:00 +13°C° 0.1 mm 3 mps 742 mmHg 78%
22:00 +13°C° 0.1 mm 3 mps 742 mmHg 79%
23:00 +13°C° 0 mm 3 mps 742 mmHg 79%

27 October, Tuesday

Time Temperature Precipitation Wind Pressure Humidity
00:00 +13°C° 0 mm 3 mps 742 mmHg 78%
01:00 +13°C° 0 mm 3 mps 742 mmHg 77%
02:00 +12°C° 0 mm 3 mps 742 mmHg 77%
03:00 +12°C° 0 mm 3 mps 742 mmHg 78%
04:00 +12°C° 0 mm 3 mps 742 mmHg 78%
05:00 +12°C° 0 mm 3 mps 742 mmHg 79%
06:00 +11°C° 0 mm 3 mps 742 mmHg 79%
07:00 +11°C° 0 mm 3 mps 743 mmHg 80%
08:00 +12°C° 0 mm 3 mps 743 mmHg 76%
09:00 +14°C° 0 mm 3 mps 743 mmHg 72%
10:00 +15°C° 0 mm 4 mps 744 mmHg 68%
11:00 +17°C° 0 mm 3 mps 744 mmHg 65%
12:00 +17°C° 0 mm 3 mps 744 mmHg 63%
13:00 +18°C° 0 mm 3 mps 745 mmHg 60%
14:00 +17°C° 0 mm 2 mps 745 mmHg 64%
15:00 +17°C° 0 mm 2 mps 745 mmHg 67%
16:00 +16°C° 0 mm 1 mps 745 mmHg 71%
17:00 +15°C° 0 mm 1 mps 746 mmHg 75%
18:00 +14°C° 0 mm 2 mps 746 mmHg 80%
19:00 +13°C° 0 mm 2 mps 747 mmHg 85%
20:00 +13°C° 0 mm 2 mps 747 mmHg 86%
21:00 +13°C° 0 mm 2 mps 748 mmHg 87%
22:00 +12°C° 0 mm 2 mps 748 mmHg 87%
23:00 +12°C° 0 mm 1 mps 748 mmHg 88%
Show more